Regional Weather Roundup
Issued by NWS Green Bay, WI

Home | Current Version | Previous Version | Graphics & Text | Print | Product List | Glossary Off
Versions: 1 2 3 4 5 6 7 8 9 10 11 12 13 14 15 16 17 18 19 20 21 22 23 24 25 26 27 28 29 30 31 32 33 34 35 36 37 38 39 40 41 42 43 44 45 46 47 48 49 50

000
ASUS43 KGRB 051411
RWRGRB

NORTH-CENTRAL AND NORTHEAST WISCONSIN REGIONAL WEATHER ROUNDUP
NATIONAL WEATHER SERVICE GREEN BAY WI
900 AM CDT SUN JUL 05 2015

WIZ005-009-010>012-018-019-051500-
NORTH CENTRAL WISCONSIN

CITY           SKY/WX    TMP DP  RH WIND       PRES   REMARKS
IRONWOOD       PTSUNNY   70  63  78 SW12G17   29.94S
MANITOWISH WTR MOSUNNY   71  64  78 SW10      30.01S
ARBOR VITAE    SUNNY     72  65  78 S8        30.02S
EAGLE RIVER    SUNNY     70  63  78 SW9       30.03R
LAND O LAKES   SUNNY     71  62  72 SW8       30.03R
RHINELANDER    SUNNY     71  62  73 SW8       30.05R
PHILLIPS       PTSUNNY   69  63  80 S7        30.01S
ANTIGO         SUNNY     70  64  80 SW6       30.04F
TOMAHAWK       SUNNY     68  62  82 SW5       30.05R
MERRILL        SUNNY     71  64  77 SW6       30.05R
$$

WIZ013-073-051500-
NORTHEAST WISCONSIN

CITY           SKY/WX    TMP DP  RH WIND       PRES   REMARKS
IRON MOUNTAIN  SUNNY     70  63  78 SE6       30.00F HAZE
MARINETTE      SUNNY     70  63  78 SW7       30.03S
OCONTO         SUNNY     73  65  74 SW3       30.04S
$$

WIZ017-030-035>037-045-051500-
CENTRAL WISCONSIN

CITY           SKY/WX    TMP DP  RH WIND       PRES   REMARKS
MEDFORD        SUNNY     69  62  77 S9        30.04R
WAUSAU         SUNNY     72  62  71 SW6       30.02S
MOSINEE        SUNNY     70  64  83 S8        30.04F
MARSHFIELD     SUNNY     71  61  70 SW9       30.05R
WISC RAPIDS    SUNNY     72  61  68 SW7       30.05F
STEVENS POINT  SUNNY     71  60  70 S7        30.04F
WAUPACA        SUNNY     72  65  78 S3        30.05S
SHAWANO        SUNNY     73  64  73 CALM      30.04F
CLINTONVILLE   SUNNY     72  61  68 SW3       30.04S
$$

WIZ038-039-048-051-051500-
FOX VALLEY

CITY           SKY/WX    TMP DP  RH WIND       PRES   REMARKS
NWS GREEN BAY  SUNNY     73  65  75 SW6       30.05S
APPLETON       MOSUNNY   72  61  68 SW7       30.06S
OSHKOSH        SUNNY     73  63  70 S7        30.06S
FOND DU LAC    SUNNY     73  64  73 S7        30.07S
$$

WIZ022-050-052-051500-
EAST CENTRAL WISCONSIN

CITY           SKY/WX    TMP DP  RH WIND       PRES   REMARKS
STURGEON BAY   SUNNY     72  63  73 SW5       30.07S
MANITOWOC      SUNNY     72  65  78 MISG      30.07S
SHEBOYGAN      SUNNY     73  63  70 SW6       30.07S
$$

LMZ563-521-522-541>543-051500-
LAKESHORE

STATION/POSITION TIME  TEMP    WIND        PRES    VSBY  WAVE
                       AIR SEA DIR/SP/G                  HT/PER
                 (UTC) (F)     (DEG/KT/KT) (MB)    (MI)  (FT/S)
SHEBOYGAN LKSHOR 1400   68     170/  7/  8 1018.4S
KEWAUNEE LKSHORE 1300   62     170/  2/  5 1017.2R
NORTHPORT PIER   1300   63     150/  5/  7 1017.3S
N MID LAKE BUOY  1350   52 45  190/  8/  8 1017.9S         1
SISTER BAY LKSHO 1314   69     160/  6/  7   N/A
CHAMBERS ISLAND  1300   68     170/  4/  9 1017.3S
MENOMINEE LKSHOR 1300   69     190/  4/  7 1017.8R
$$



USA.gov is the U.S. government's official web portal to all federal, state and local government web resources and services.